Temperature
21 20 20 20 19 19 19 19 18 18 18 18 17 17 17 17 16 16 16 16 15 15 15 15 15 15 15 15 15 15 15 15 15 15 15 15 14 15 15 14 14 14 14
20 20 20 19 19 19 18 18 18 18 18 17 17 17 17 16 16 16 16 15 15 15 15 15 15 15 15 15 15 15 15 15 15 15 14 14 14 14 14 14 14 14 14
20 20 19 19 19 19 18 18 18 18 17 17 17 17 16 16 16 16 15 15 15 15 15 15 15 15 15 15 14 14 14 14 14 14 14 14 14 14 14 14 14 14 14
20 19 19 19 19 18 18 18 18 17 17 17 17 16 16 16 16 16 15 15 15 15 15 14 14 14 14 14 14 14 14 14 14 14 14 14 14 14 13 13 13 14 14
19 19 19 19 18 18 18 18 17 17 17 17 16 16 16 16 16 15 15 15 15 15 15 15 14 14 14 14 14 14 14 14 13 13 13 13 13 13 13 13 13 13 13
19 19 19 19 18 18 18 17 17 17 17 16 16 16 16 15 15 15 15 15 15 15 15 14 14 14 14 14 14 13 13 13 13 13 13 13 13 13 13 13 13 13 13
19 19 18 18 18 18 17 17 17 17 16 16 16 16 15 15 15 15 15 15 14 14 14 14 14 14 14 14 13 13 13 13 13 13 13 13 12 12 12 12 12 12 12
18 18 18 18 17 17 17 17 17 16 16 16 16 15 15 15 15 15 14 14 14 14 14 14 14 14 13 13 13 13 13 13 13 13 12 12 12 12 12 12 12 12 12
18 18 18 17 17 17 17 17 16 16 16 15 15 15 15 15 14 14 14 14 14 14 14 14 13 13 13 13 13 13 13 13 12 12 12 12 12 12 12 12 12 12 12
18 18 17 17 17 17 16 16 16 16 15 15 15 15 15 15 14 14 14 14 14 14 14 13 13 13 13 13 13 12 12 12 12 12 12 12 12 12 12 12 12 11 11
17 17 17 16 16 16 16 16 15 15 15 15 15 15 14 14 14 14 14 14 14 14 13 13 13 13 13 12 12 12 12 12 12 12 12 12 12 12 12 11 11 11 11
17 16 16 16 16 16 16 15 15 15 14 14 14 14 14 14 14 14 14 14 13 13 13 13 13 12 12 12 12 12 12 12 11 11 11 11 11 11 11 11 11 11 11
16 16 16 16 15 15 15 14 14 14 14 14 14 14 14 14 13 13 13 13 13 13 13 13 12 12 12 12 12 12 12 11 11 11 11 11 11 11 11 11 11 11 11
15 15 15 15 15 14 14 14 14 14 13 13 13 13 13 13 13 13 13 13 13 12 12 12 12 12 12 12 12 12 11 11 11 11 11 11 11 11 11 10 10 10 10
15 15 14 14 14 14 13 13 13 13 13 13 13 13 13 13 13 13 12 12 12 12 12 12 12 12 12 12 11 11 11 11 11 11 11 11 10 10 10 10 10 10 10
14 14 14 14 13 13 13 13 13 13 12 12 12 12 12 12 12 12 12 12 12 12 12 12 11 11 11 11 11 11 11 11 11 11 11 10 10 10 10 10 10 10 10
13 13 13 13 13 13 13 12 12 12 12 12 12 12 12 12 12 12 12 11 11 11 11 11 11 11 11 11 11 11 11 11 11 11 10 10 10 10 10 10 10 10 10
13 12 12 13 12 12 12 12 12 12 12 12 11 11 11 11 11 11 11 11 11 11 11 11 11 11 11 11 11 11 11 11 11 10 10 10 10 10 10 10 10 10 10
12 12 12 12 12 12 12 12 12 11 11 11 11 11 11 11 11 11 11 11 11 11 11 11 11 11 11 11 10 11 11 10 10 10 10 10 10 10 9 9 9 9 9
12 12 11 11 11 11 11 11 11 11 11 11 11 11 11 11 11 11 11 11 10 11 11 11 11 11 11 10 10 10 10 10 10 10 10 10 10 9 9 9 9 9 9
11 11 11 11 11 11 11 11 11 11 11 11 11 11 10 10 10 10 10 10 10 10 10 10 10 10 10 10 10 10 10 10 10 10 9 9 9 9 9 9 9 9 9
11 11 10 10 10 10 11 11 11 11 10 10 10 10 10 10 10 10 10 10 10 10 10 10 10 10 10 10 10 10 10 10 10 9 9 9 9 9 9 9 9 9 9
10 10 10 10 10 10 10 10 10 10 10 10 10 10 10 10 10 10 10 10 10 10 10 10 10 9 10 10 9 9 9 9 9 9 9 9 9 9 9 9 9 9 9
10 10 10 10 10 10 10 10 9 9 9 9 9 9 9 9 9 9 9 9 9 9 9 9 9 9 9 9 9 9 9 9 9 9 9 9 9 9 9 9 9 9 9
9 9 9 9 9 9 9 9 9 9 9 9 9 9 9 9 9 9 9 9 9 9 9 9 9 9 9 9 9 9 9 9 9 9 9 9 9 8 8 8 8 9 8
9 9 9 9 9 9 9 9 9 9 8 8 8 8 8 8 8 9 9 9 9 9 9 9 8 8 8 8 8 8 8 8 9 8 8 8 8 8 8 8 8 8 8
Wind_Speed
5 5 5 5 5 4 4 4 4 4 4 4 4 3 3 2 2 2 2 1 2 1 0 1 0 0 0 0 1 1 2 3 2 2 1 2 2 2 2 1 2 2 3
5 4 4 4 4 4 4 4 4 4 4 4 4 3 3 3 3 3 3 2 2 1 1 1 1 1 0 1 1 1 2 2 3 2 2 2 2 2 1 1 1 2 2
4 5 4 4 4 5 5 4 4 4 4 4 4 4 3 3 3 3 3 3 2 2 2 2 2 1 1 1 1 1 1 1 1 2 2 1 2 2 1 1 2 2 2
4 4 5 5 5 5 4 4 3 4 4 4 4 4 4 4 3 3 3 3 2 2 2 2 2 2 3 2 2 2 2 2 1 1 1 2 2 2 1 1 2 2 2
4 4 4 4 4 3 3 3 3 4 4 4 4 4 3 3 4 4 4 3 3 2 2 2 3 3 3 3 2 2 2 2 2 1 1 2 2 1 2 2 2 3 2
3 3 3 3 3 3 3 3 3 3 3 3 3 4 4 4 4 5 5 3 3 3 2 2 2 3 3 3 3 4 4 3 3 3 3 3 3 3 2 2 2 2 2
2 2 2 3 3 3 3 3 3 4 3 3 4 4 4 4 5 5 5 4 3 3 3 2 2 1 1 1 1 1 2 3 4 4 4 4 4 3 2 2 2 3 4
2 2 3 3 3 3 3 3 3 3 3 4 4 4 4 4 5 5 5 3 3 3 3 3 3 2 2 2 1 1 1 2 3 3 4 4 4 4 4 3 3 3 3
2 3 3 3 3 3 3 3 3 3 3 3 3 4 4 5 5 6 5 3 3 3 3 3 3 3 2 2 2 1 2 3 3 2 3 3 4 3 3 2 1 1 3
3 3 3 3 3 4 3 3 3 3 3 3 3 3 4 5 5 6 6 3 3 3 3 3 4 4 4 4 3 3 3 4 3 2 2 3 3 3 3 3 3 3 3
2 2 2 3 4 3 3 2 2 3 3 3 2 2 3 4 4 5 6 4 4 4 3 3 4 5 5 5 5 5 6 4 2 2 2 2 2 2 2 3 4 4 4
2 2 3 2 2 3 3 2 2 2 2 2 2 2 2 3 4 4 5 6 5 4 4 4 4 5 5 5 4 4 4 2 2 2 2 3 3 3 3 4 4 5 6
1 1 2 2 2 2 3 2 2 2 2 2 2 3 3 3 3 4 4 6 6 4 4 5 4 5 4 3 4 4 3 2 2 3 3 4 4 4 3 3 3 3 4
1 0 1 2 2 1 2 2 3 3 3 3 3 4 4 3 3 2 2 3 4 4 3 3 3 3 2 3 2 3 3 3 4 4 4 4 3 2 2 3 3 2 2
1 1 1 2 2 2 1 2 3 3 5 5 5 5 4 5 5 5 3 3 3 3 2 1 0 1 2 2 2 3 3 3 4 4 4 4 3 3 3 3 2 2 3
1 1 1 1 1 1 1 1 2 2 4 6 6 5 4 5 4 3 3 3 3 4 3 2 2 3 4 4 4 3 3 4 4 4 4 4 4 4 4 3 3 3 4
1 1 0 0 0 1 1 2 2 3 2 2 4 4 4 3 3 3 3 3 2 4 2 3 4 4 4 5 5 5 5 5 4 4 5 5 5 4 4 4 3 3 4
0 1 1 1 1 1 2 2 2 2 3 3 3 3 3 3 3 4 3 2 1 2 3 4 4 5 5 5 5 5 5 4 4 4 5 5 5 4 4 4 4 4 4
1 1 2 1 2 2 2 2 2 2 3 3 3 2 2 2 2 2 4 3 3 4 4 4 5 5 5 5 5 5 5 5 5 5 5 5 5 5 5 5 5 6 5
1 2 2 2 2 2 2 2 2 3 3 3 3 3 1 0 1 1 2 3 3 4 4 4 4 5 5 5 5 5 5 5 5 5 5 5 5 5 6 6 6 5 5
2 2 3 2 2 2 2 3 3 3 3 3 4 4 3 3 3 3 3 3 4 4 4 4 4 4 5 4 4 5 5 5 5 5 5 5 5 5 6 6 6 6 5
1 2 2 2 2 2 2 3 2 3 3 4 4 3 3 3 3 3 3 4 4 4 4 4 4 4 4 4 4 5 5 5 5 5 5 5 5 6 6 6 6 5 5
1 2 2 2 2 3 3 2 2 3 3 4 3 3 2 3 3 3 4 4 4 4 4 3 4 4 4 4 4 4 5 5 5 5 6 6 6 6 6 7 7 7 6
2 2 2 2 2 2 3 3 3 3 4 4 3 3 3 3 4 4 4 4 4 4 4 4 4 5 5 4 4 4 5 5 6 6 7 6 6 6 6 7 7 8 7
2 3 3 3 3 3 3 3 3 3 4 4 4 4 4 4 4 4 4 4 4 4 5 5 4 5 6 6 5 5 6 7 6 6 5 6 7 7 7 7 7 7 7
3 3 3 3 3 3 3 3 3 4 4 5 4 4 4 4 4 4 4 4 4 4 5 5 5 6 6 6 7 6 6 6 6 6 5 5 6 6 6 7 8 8 8
Wind_Direction
188 191 190 189 186 183 185 189 188 184 181 178 178 171 171 169 163 154 169 159 162 190 184 155 215 173 152 167 147 153 173 177 207 271 288 311 322 321 334 314 269 255 250
187 180 185 184 172 177 194 196 188 185 184 182 169 164 171 174 173 169 183 182 176 191 206 163 227 197 193 224 175 180 185 188 189 240 294 316 305 308 309 303 302 269 255
174 176 184 187 184 196 207 200 190 184 178 173 167 173 184 183 181 186 179 184 187 200 207 199 225 196 228 233 200 190 194 177 175 203 273 296 301 317 332 314 307 305 287
175 182 192 197 199 204 209 193 187 182 181 182 182 185 189 184 182 181 177 181 182 186 204 214 221 209 220 212 200 195 173 148 153 188 264 290 290 302 313 307 308 299 291
176 187 202 200 191 187 188 186 181 182 188 182 178 183 188 188 194 187 191 193 191 204 227 233 233 217 208 201 199 194 171 166 178 200 255 278 285 301 285 277 278 291 280
171 191 186 173 177 183 187 184 178 181 179 168 175 181 194 208 201 193 189 192 197 205 228 257 258 239 221 210 204 195 183 187 205 219 238 249 259 260 268 261 270 288 290
156 162 162 174 177 180 179 168 183 190 185 185 191 189 198 212 202 197 194 192 204 215 224 247 254 250 221 215 215 212 220 220 209 210 226 239 243 235 234 248 252 260 264
168 178 175 174 185 182 170 180 192 193 193 199 204 205 206 217 207 206 206 199 212 229 230 226 223 240 227 203 196 302 281 268 246 232 230 239 241 231 224 231 240 259 268
195 206 196 187 186 179 188 198 196 190 200 205 205 206 212 228 217 210 199 199 216 236 236 229 221 225 224 183 164 252 293 297 286 247 247 259 261 247 210 202 233 267 282
219 221 202 190 187 188 198 201 196 191 207 208 215 220 222 234 230 220 201 199 216 233 242 239 230 230 222 192 194 205 242 268 272 278 305 307 292 276 234 219 221 237 262
221 199 190 191 189 184 185 190 185 188 189 198 215 240 241 243 239 227 209 202 213 224 235 245 246 237 232 214 207 215 231 243 250 252 272 294 303 297 271 245 232 229 239
185 182 192 191 190 182 175 186 177 173 181 200 211 259 269 258 239 236 225 213 204 213 231 239 242 238 239 227 221 230 232 228 231 242 261 273 276 276 270 263 251 244 242
174 200 195 168 172 164 168 175 175 178 192 228 235 251 267 265 255 242 235 222 213 215 231 236 243 249 243 243 240 235 223 216 224 238 252 261 263 268 277 280 273 260 261
168 197 136 144 143 143 159 175 186 196 210 224 240 250 262 261 255 252 251 240 224 223 240 248 248 247 241 240 243 231 224 223 224 239 249 256 262 266 272 278 282 286 286
99 94 131 154 155 165 178 203 211 219 215 217 228 228 233 245 245 229 220 226 222 219 192 180 220 255 256 262 257 248 241 240 237 242 246 255 259 263 268 265 260 268 269
100 106 165 166 150 166 169 305 293 252 252 234 224 221 238 243 244 235 230 221 212 180 161 208 229 238 245 249 253 256 247 240 239 239 242 246 250 255 263 259 247 247 256
148 221 216 196 184 193 212 234 279 303 306 262 244 242 248 256 246 233 228 216 190 160 190 228 234 238 246 250 249 247 248 245 236 234 239 241 244 249 257 258 254 252 255
291 289 255 233 234 225 235 244 248 265 289 298 288 268 271 267 254 243 213 151 175 191 230 238 243 246 248 251 255 256 254 250 239 240 242 243 240 241 247 249 246 248 255
233 250 247 242 245 236 239 244 249 255 262 278 298 297 283 269 259 233 177 198 226 238 240 244 249 251 253 253 256 257 256 252 245 240 243 240 237 236 241 243 244 243 245
258 270 273 255 257 249 243 247 248 250 257 264 270 277 280 248 263 257 224 227 234 245 247 248 252 255 255 252 252 254 256 255 250 246 245 241 236 234 238 240 239 239 242
270 282 289 290 268 255 248 247 249 250 257 264 266 262 233 233 243 244 242 243 244 250 253 256 257 257 255 252 252 251 251 253 250 246 247 245 239 239 241 239 238 237 239
258 272 278 275 275 269 262 255 252 254 259 265 276 274 238 238 247 249 251 256 257 255 254 251 258 259 256 256 254 251 252 253 254 255 254 253 249 243 239 236 237 234 231
242 263 281 284 282 279 276 273 265 261 263 265 265 267 254 251 256 259 262 267 269 268 264 255 258 267 268 260 252 245 247 251 253 253 255 255 250 244 239 236 234 233 231
251 259 269 278 280 280 277 276 272 270 272 275 272 265 260 259 264 268 268 270 271 270 267 263 262 268 275 275 263 251 255 261 261 255 250 249 248 245 242 238 235 230 230
245 249 256 263 268 272 274 275 278 280 279 277 273 270 269 267 268 271 275 276 275 275 275 273 269 269 272 274 274 271 270 266 262 260 246 241 243 242 240 239 235 231 230
251 248 249 252 256 262 264 265 268 272 273 274 275 273 271 271 271 271 275 277 279 278 277 276 273 275 277 274 274 275 268 263 263 261 247 241 241 242 242 242 237 228 228
Height
1512 1513 1515 1516 1517 1518 1520 1521 1522 1523 1523 1524 1524 1524 1525 1525 1526 1526 1526 1527 1527 1527 1527 1527 1527 1527 1527 1527 1527 1527 1527 1527 1527 1527 1527 1527 1527 1527 1527 1527 1527 1526 1526
1510 1511 1512 1513 1515 1516 1517 1518 1519 1520 1521 1521 1522 1522 1522 1523 1523 1523 1523 1524 1524 1525 1525 1525 1525 1525 1525 1525 1525 1525 1525 1525 1525 1524 1524 1525 1525 1525 1525 1525 1524 1524 1524
1507 1508 1509 1511 1512 1513 1514 1515 1516 1517 1518 1519 1519 1520 1520 1521 1521 1522 1522 1522 1522 1522 1522 1523 1523 1523 1522 1522 1522 1522 1523 1523 1523 1522 1522 1522 1522 1522 1522 1522 1521 1521 1521
1505 1506 1508 1508 1509 1510 1511 1511 1513 1514 1515 1516 1517 1517 1518 1518 1518 1519 1520 1520 1520 1520 1520 1520 1520 1520 1520 1520 1520 1520 1520 1520 1520 1520 1520 1520 1520 1519 1519 1518 1518 1518 1518
1503 1504 1504 1505 1505 1507 1508 1509 1511 1512 1512 1513 1514 1515 1515 1515 1516 1516 1517 1517 1517 1517 1518 1518 1517 1517 1517 1517 1517 1518 1518 1518 1518 1518 1517 1517 1517 1516 1516 1516 1515 1515 1514
1499 1500 1502 1502 1503 1504 1505 1507 1508 1509 1509 1510 1511 1511 1512 1513 1513 1514 1514 1515 1514 1515 1515 1515 1515 1515 1514 1515 1515 1515 1516 1515 1515 1515 1515 1515 1514 1514 1513 1513 1512 1511 1510
1497 1498 1499 1500 1500 1501 1503 1504 1505 1506 1507 1507 1508 1508 1509 1510 1510 1511 1511 1512 1512 1512 1512 1512 1512 1512 1512 1512 1513 1513 1513 1513 1513 1513 1512 1511 1511 1511 1510 1509 1509 1508 1507
1495 1496 1496 1497 1498 1499 1500 1501 1502 1503 1504 1504 1505 1506 1506 1507 1507 1508 1508 1509 1509 1509 1509 1509 1509 1509 1509 1510 1510 1509 1509 1510 1509 1509 1509 1508 1508 1508 1507 1507 1506 1505 1504
1492 1493 1494 1495 1495 1496 1497 1498 1499 1500 1501 1502 1502 1503 1503 1504 1504 1505 1505 1506 1506 1506 1507 1507 1506 1506 1507 1507 1507 1507 1506 1506 1507 1506 1506 1505 1505 1505 1504 1504 1503 1502 1501
1490 1491 1492 1492 1493 1493 1494 1495 1496 1497 1498 1499 1499 1500 1500 1501 1501 1502 1502 1502 1503 1503 1504 1504 1504 1504 1504 1504 1504 1504 1503 1503 1503 1503 1503 1502 1502 1502 1501 1501 1500 1499 1498
1488 1488 1489 1489 1490 1490 1491 1492 1493 1494 1494 1495 1496 1496 1497 1497 1498 1498 1499 1499 1499 1500 1500 1500 1500 1501 1501 1501 1501 1501 1500 1500 1500 1500 1499 1499 1499 1498 1498 1497 1497 1496 1495
1485 1486 1486 1486 1487 1487 1488 1489 1490 1491 1491 1492 1492 1493 1494 1494 1495 1495 1495 1495 1496 1496 1496 1497 1497 1497 1497 1498 1498 1498 1497 1497 1497 1496 1496 1495 1495 1495 1494 1494 1493 1492 1492
1483 1483 1483 1483 1483 1484 1485 1485 1486 1487 1488 1489 1489 1489 1490 1491 1491 1491 1492 1492 1492 1492 1493 1493 1494 1494 1494 1494 1494 1494 1494 1494 1493 1493 1492 1492 1491 1491 1490 1490 1489 1489 1488
1480 1480 1480 1480 1481 1482 1482 1483 1483 1484 1485 1485 1486 1486 1486 1487 1487 1487 1487 1487 1488 1488 1488 1489 1490 1490 1490 1490 1490 1490 1490 1490 1490 1489 1488 1488 1488 1487 1487 1486 1485 1485 1484
1476 1477 1479 1478 1478 1479 1480 1481 1481 1481 1482 1482 1482 1482 1482 1482 1483 1483 1483 1483 1484 1484 1484 1485 1485 1486 1486 1486 1486 1486 1486 1486 1485 1485 1485 1484 1484 1484 1483 1483 1482 1481 1481
1475 1475 1476 1476 1476 1476 1477 1477 1478 1478 1478 1479 1479 1479 1478 1479 1479 1479 1480 1480 1480 1480 1480 1480 1481 1482 1482 1482 1482 1482 1482 1481 1481 1481 1481 1480 1480 1480 1479 1479 1479 1478 1477
1474 1473 1474 1474 1474 1474 1474 1474 1475 1475 1475 1475 1475 1475 1475 1475 1475 1475 1475 1475 1476 1476 1476 1476 1476 1477 1478 1478 1478 1477 1477 1477 1477 1476 1476 1476 1476 1476 1475 1475 1474 1474 1473
1473 1473 1472 1472 1472 1472 1472 1472 1472 1472 1471 1471 1472 1472 1471 1471 1471 1471 1471 1472 1471 1472 1472 1472 1472 1473 1473 1473 1473 1473 1473 1472 1472 1472 1472 1472 1472 1471 1471 1471 1470 1470 1469
1470 1471 1470 1470 1470 1470 1469 1469 1469 1469 1469 1469 1469 1469 1468 1467 1468 1468 1467 1467 1467 1468 1468 1468 1468 1468 1468 1468 1468 1468 1468 1468 1468 1467 1467 1467 1467 1467 1467 1466 1466 1465 1465
1468 1469 1468 1467 1467 1467 1466 1466 1466 1466 1466 1466 1465 1465 1465 1464 1464 1464 1463 1463 1464 1464 1464 1464 1464 1464 1464 1464 1464 1463 1463 1463 1463 1463 1462 1462 1463 1462 1462 1462 1461 1461 1460
1466 1466 1466 1465 1464 1464 1463 1463 1463 1463 1462 1462 1462 1462 1462 1461 1460 1460 1460 1459 1459 1460 1460 1460 1460 1460 1460 1459 1459 1459 1458 1458 1458 1458 1457 1457 1457 1457 1458 1457 1457 1457 1456
1464 1463 1462 1462 1461 1460 1460 1459 1459 1459 1458 1458 1457 1457 1457 1456 1456 1455 1455 1455 1455 1455 1455 1455 1455 1455 1455 1455 1454 1454 1454 1453 1453 1452 1452 1452 1452 1452 1452 1452 1452 1452 1451
1461 1460 1459 1458 1458 1457 1456 1456 1455 1455 1454 1454 1453 1453 1452 1452 1451 1451 1451 1451 1451 1451 1451 1451 1451 1451 1451 1450 1450 1449 1449 1448 1448 1447 1447 1446 1446 1446 1446 1446 1446 1446 1446
1458 1457 1456 1455 1455 1454 1453 1453 1452 1451 1451 1450 1449 1449 1448 1448 1448 1447 1447 1447 1447 1446 1446 1446 1446 1446 1445 1445 1444 1444 1444 1443 1443 1442 1442 1441 1441 1441 1441 1441 1441 1441 1441
1454 1454 1453 1452 1451 1450 1449 1449 1448 1447 1447 1446 1445 1445 1444 1444 1443 1443 1443 1442 1442 1441 1441 1441 1441 1440 1440 1439 1439 1438 1438 1438 1437 1437 1436 1436 1435 1435 1435 1435 1435 1436 1436
1451 1450 1449 1448 1447 1446 1445 1444 1444 1443 1443 1442 1441 1440 1440 1439 1438 1438 1438 1437 1437 1436 1436 1436 1435 1435 1434 1434 1433 1433 1432 1432 1431 1431 1431 1430 1430 1429 1429 1430 1430 1430 1431